Change the Weather History Date:

Sunday, January 19, 2014

  Actual Average Record
Temperature  
Mean Temperature 32 °F 12 °F  
Max Temperature 40 °F 22 °F 56 °F (1900)
Min Temperature 24 °F 3 °F -33 °F (1970)
Degree Days  
Heating Degree Days 33 53  
Month to date heating degree days 1028 1000  
Since 1 July heating degree days 4626 4459  
Cooling Degree Days 0 0  
Month to date cooling degree days 0 0  
Year to date cooling degree days 0 0  
Moisture  
Dew Point 25 °F    
Average Humidity 76    
Maximum Humidity 88    
Minimum Humidity 64    
Precipitation  
Precipitation 0.00 in 0.02 in 0.30 in (1979)
Month to date precipitation 0.09 0.32  
Year to date precipitation 0.09 0.32  
Snow  
Snow 0.00 in - - ()
Month to date snowfall 1.4  
Since 1 July snowfall 12.8  
Snow Depth 8.00 in    
Sea Level Pressure  
Sea Level Pressure 29.68 in    
Wind  
Wind Speed 15 mph (West)    
Max Wind Speed 24 mph    
Max Gust Speed 32 mph    
Visibility 10 miles    
Events      
T = Trace of Precipitation, MM = Missing Value Source: NWS Daily Summary

Daily Weather History Graph

Daily Weather History Graph

Search for Another Location

Airport or City:

Trip Planner

Search our weather history database for the weather conditions in past years. The results will help you decide how hot, cold, wet, or windy it might be!

Date:

Astronomy

Jan. 19, 2014 Rise Set
Actual Time 8:00 AM CST 5:18 PM CST
Civil Twilight 7:28 AM CST 5:51 PM CST
Nautical Twilight 6:52 AM CST 6:27 PM CST
Astronomical Twilight 6:17 AM CST 7:02 PM CST
Moon 9:09 PM CST (1/19) 9:20 AM CST (1/19)
Length of Visible Light 10h 23m
Length of Day
9h 18m
Waning Gibbous, 89% of the Moon is Illuminated
Jan 19
Waning Gibbous
Jan 23
Last Quarter
Jan 30
New
Feb 6
First Quarter
Feb 14
Full

Hourly Weather History & Observations

Time (CST) Temp. Windchill Dew Point Humidity Pressure Visibility Wind Dir Wind Speed Gust Speed Precip Events Conditions
12:53 AM 25.0 °F 10.6 °F 21.0 °F 85% 29.75 in 10.0 mi WSW 20.7 mph 27.6 mph N/A   Clear
1:53 AM 26.1 °F 12.7 °F 21.0 °F 81% 29.72 in 10.0 mi WSW 18.4 mph 25.3 mph N/A   Clear
2:53 AM 28.0 °F 16.1 °F 21.0 °F 75% 29.73 in 10.0 mi WSW 16.1 mph - N/A   Clear
3:53 AM 28.0 °F 15.3 °F 21.0 °F 75% 29.70 in 10.0 mi WSW 18.4 mph - N/A   Clear
4:53 AM 28.0 °F 16.5 °F 21.0 °F 75% 29.69 in 10.0 mi West 15.0 mph - N/A   Clear
5:53 AM 25.0 °F 14.8 °F 19.0 °F 78% 29.68 in 10.0 mi West 10.4 mph - N/A   Clear
6:53 AM 25.0 °F 16.3 °F 19.9 °F 81% 29.65 in 10.0 mi WSW 8.1 mph - N/A   Clear
7:53 AM 26.1 °F 15.6 °F 21.0 °F 81% 29.64 in 10.0 mi West 11.5 mph - N/A   Clear
8:53 AM 27.0 °F 18.7 °F 21.9 °F 81% 29.62 in 10.0 mi West 8.1 mph - N/A   Clear
9:53 AM 28.9 °F 18.2 °F 23.0 °F 78% 29.62 in 10.0 mi WSW 13.8 mph - N/A   Clear
10:53 AM 34.0 °F 23.4 °F 26.1 °F 73% 29.60 in 10.0 mi WSW 17.3 mph - N/A   Clear
11:53 AM 37.0 °F 27.0 °F 28.0 °F 70% 29.57 in 10.0 mi West 18.4 mph 26.5 mph N/A   Clear
12:53 PM 39.9 °F 30.5 °F 28.0 °F 63% 29.57 in 10.0 mi West 19.6 mph 29.9 mph N/A   Clear
1:53 PM 39.9 °F 30.2 °F 28.9 °F 65% 29.57 in 10.0 mi WNW 20.7 mph 32.2 mph N/A   Clear
2:53 PM 39.0 °F 29.6 °F 28.9 °F 67% 29.60 in 10.0 mi WNW 18.4 mph 27.6 mph N/A   Clear
3:53 PM 37.9 °F 27.6 °F 28.9 °F 70% 29.65 in 10.0 mi NW 20.7 mph - N/A   Clear
4:53 PM 36.0 °F 26.0 °F 28.9 °F 76% 29.68 in 10.0 mi NNW 17.3 mph - N/A   Clear
5:53 PM 35.1 °F 25.2 °F 28.9 °F 78% 29.72 in 10.0 mi NW 16.1 mph - N/A   Clear
6:53 PM 34.0 °F 25.5 °F 28.0 °F 79% 29.74 in 10.0 mi NW 11.5 mph - N/A   Clear
7:53 PM 35.1 °F 25.9 °F 28.0 °F 76% 29.76 in 10.0 mi WNW 13.8 mph - N/A   Clear
8:53 PM 34.0 °F 24.6 °F 28.0 °F 79% 29.76 in 10.0 mi WNW 13.8 mph - N/A   Clear
9:53 PM 32.0 °F 23.6 °F 27.0 °F 82% 29.77 in 10.0 mi WNW 10.4 mph - N/A   Clear
10:53 PM 32.0 °F 23.0 °F 26.1 °F 79% 29.80 in 10.0 mi NW 11.5 mph - N/A   Clear
11:53 PM 30.9 °F 21.2 °F 26.1 °F 82% 29.82 in 10.0 mi NW 12.7 mph - N/A   Scattered Clouds